Theta_e
309 309 310 310 309 309 309 309 308 308 307 307 308 308 307 305 304 303 302 301 301 300 298 297 297 296 296 296 295 295 295 295 295 295 295 295 295 295 295 296 296 296 296 297
303 304 304 303 304 304 305 304 304 304 304 304 304 305 305 304 303 302 302 301 300 299 298 297 296 296 295 295 295 294 295 295 295 295 295 295 295 294 294 294 295 295 295 296
302 302 303 302 303 303 304 303 303 303 302 303 303 303 303 303 302 302 301 301 299 298 297 296 296 295 294 294 294 294 293 294 294 293 293 292 292 293 293 293 294 294 295 295
302 303 303 303 303 303 304 303 302 302 302 302 302 302 302 302 301 301 301 300 299 297 296 295 294 294 294 294 293 293 292 292 292 291 291 291 292 292 292 292 293 293 294 295
302 303 304 303 303 303 303 303 302 302 302 302 302 302 302 302 302 301 300 299 297 297 296 295 294 294 293 292 292 292 292 291 290 290 290 290 290 290 291 291 292 292 293 294
303 304 303 303 302 302 301 300 302 302 301 300 300 296 298 299 300 300 299 297 297 297 295 294 293 293 292 292 291 291 290 289 289 288 288 289 289 289 290 291 291 291 292 292
302 303 304 301 301 301 301 301 300 300 299 299 298 299 298 298 299 299 298 297 296 295 294 293 293 292 291 291 290 290 289 289 288 288 288 288 288 289 290 290 290 290 290 290
301 303 303 301 301 300 298 298 298 297 297 297 298 298 298 298 299 298 297 296 295 294 293 293 292 291 291 290 290 289 288 288 288 288 287 287 288 288 289 289 289 289 288 288
299 300 302 302 301 301 299 297 296 297 298 297 298 298 298 299 299 297 296 295 294 293 293 292 291 291 290 289 288 288 288 288 288 288 287 287 288 287 288 287 287 287 287 286
295 297 297 297 297 297 297 297 297 297 297 297 297 297 298 298 298 297 296 294 293 292 292 291 291 291 290 289 287 286 287 288 288 287 287 287 287 286 286 286 286 286 286 286
296 297 297 297 297 297 297 297 297 297 297 297 297 297 298 297 297 296 295 293 292 292 291 291 290 290 289 287 286 285 286 287 287 287 287 286 287 287 285 283 284 285 284 284
294 297 296 297 296 297 296 296 296 296 296 296 297 297 297 296 296 294 294 293 292 291 291 290 290 289 288 286 285 285 285 287 287 286 286 286 285 286 286 285 284 283 283 284
297 297 296 296 296 296 296 296 296 296 297 297 297 297 297 296 295 293 293 292 292 291 291 290 289 287 286 285 284 284 284 285 285 286 286 285 285 284 285 285 285 284 284 283
296 296 296 296 296 296 296 296 296 297 296 297 296 296 295 294 293 293 293 292 291 291 290 289 287 286 284 284 283 283 283 284 283 284 284 284 284 284 284 284 284 284 283 284
296 296 296 296 296 296 296 296 296 296 297 296 295 294 294 293 293 293 292 292 291 291 290 289 287 285 284 284 283 283 283 283 284 284 283 283 283 283 283 283 283 283 283 283
296 296 295 296 296 296 296 296 296 296 297 296 295 294 293 293 293 293 293 292 291 291 290 290 288 284 284 283 283 283 283 283 283 283 283 283 283 283 283 283 283 283 283 283
296 296 295 295 296 296 296 296 296 297 297 296 295 294 294 293 293 293 293 293 292 291 291 290 288 284 283 283 283 282 282 283 283 283 283 283 283 283 283 283 283 283 283 283
296 296 296 296 296 297 297 297 297 297 296 294 294 294 294 294 294 294 293 292 292 291 291 290 289 285 283 283 283 283 282 282 283 283 282 283 283 283 283 283 283 282 282 282
294 295 295 295 296 296 296 297 297 296 296 295 294 294 294 294 294 294 293 292 292 291 292 290 289 285 283 283 283 283 282 282 282 282 282 282 283 282 282 282 282 282 282 281
295 294 296 296 295 295 295 296 296 296 296 295 294 294 294 294 294 294 294 294 293 292 291 290 289 286 283 283 282 283 282 282 282 282 282 282 282 282 282 282 281 281 281 281
294 295 295 295 295 295 294 295 295 295 296 296 295 294 294 294 294 294 294 293 293 292 291 289 288 285 283 282 282 282 282 282 282 282 282 282 281 281 281 281 281 281 281 280
294 294 294 294 294 294 294 294 295 295 295 295 295 294 294 294 295 294 293 293 293 291 290 289 288 284 283 282 282 282 282 282 282 282 281 281 281 281 281 280 280 280 280 279
294 294 294 294 294 294 294 294 294 294 294 294 294 294 293 294 294 293 293 293 292 291 289 289 287 284 283 282 282 282 281 281 281 282 282 282 282 281 280 280 279 279 279 279
293 293 293 293 293 293 294 294 294 294 294 294 294 294 294 294 293 293 293 293 291 290 289 287 284 283 282 282 282 281 281 281 281 282 282 282 281 281 280 279 279 279 279 278
293 293 292 293 293 293 293 293 294 294 294 293 293 294 294 294 293 293 292 291 290 289 288 285 284 284 284 283 282 282 281 281 282 282 282 281 281 280 279 279 278 278 278 277
293 293 293 293 293 293 293 293 293 293 293 293 293 293 293 293 293 293 291 290 290 288 286 286 286 284 283 282 282 281 281 281 281 281 280 280 279 279 278 278 278 278 277 277
292 292 292 293 293 293 293 293 293 293 293 293 293 292 292 291 292 292 290 290 289 287 287 286 284 283 282 282 281 281 281 280 280 280 279 279 279 279 278 278 278 277 277 277
Wind_Speed
6 7 3 6 7 6 5 6 3 3 5 3 6 5 10 11 8 6 6 4 4 4 6 8 12 15 17 18 19 19 18 16 15 18 19 21 21 20 19 18 17 15 16 16
4 4 2 6 7 6 5 5 6 6 4 8 10 6 8 6 7 4 3 3 3 5 8 11 14 16 17 19 19 18 18 16 17 18 18 19 19 21 22 21 18 17 16 15
3 1 4 7 2 8 3 3 3 2 4 3 1 3 3 6 7 9 6 1 3 5 10 14 16 18 20 20 18 17 16 15 20 22 21 20 19 19 19 19 19 18 14 14
3 4 3 3 4 6 1 4 3 2 4 6 7 7 8 8 10 7 4 4 6 8 11 15 16 18 20 19 16 17 17 20 21 20 19 18 15 15 15 16 15 13 10 11
1 3 2 5 3 2 2 3 6 3 6 1 3 5 10 12 19 11 5 6 8 11 15 16 17 20 20 16 15 16 20 22 19 19 21 18 16 18 18 14 10 10 8 9
1 2 4 5 6 6 4 4 12 4 4 6 8 4 2 13 7 4 8 8 11 13 14 16 17 19 16 13 13 18 19 17 18 19 16 15 15 14 11 9 7 6 6 7
3 3 3 7 8 4 1 0 7 2 9 11 6 9 15 21 13 10 11 11 13 14 15 16 17 17 12 13 14 17 13 15 17 14 15 13 12 8 7 7 5 4 5 6
4 4 6 13 5 3 4 2 7 12 14 13 13 14 14 15 10 8 11 13 14 17 15 14 14 14 11 11 15 15 9 15 11 16 11 12 8 7 6 6 8 8 8 10
3 2 8 9 10 8 10 7 11 13 10 11 12 13 13 9 5 7 11 15 15 16 14 9 13 15 13 12 15 14 7 13 7 15 7 11 6 8 6 7 9 10 10 11
4 2 4 7 10 12 12 8 7 10 13 13 15 15 13 10 10 10 11 15 17 16 12 8 13 16 15 15 16 12 5 11 6 8 6 7 10 7 7 5 6 6 6 8
6 13 19 19 19 11 9 8 10 12 14 16 16 15 14 13 13 14 16 15 16 15 11 13 15 15 15 16 15 10 5 4 7 2 5 5 3 7 10 10 7 8 9 8
5 12 6 6 5 5 7 12 14 15 16 16 16 17 17 15 17 16 15 15 13 13 13 15 16 16 16 16 13 9 4 2 5 3 1 3 1 4 7 8 10 11 10 10
17 18 16 12 11 14 15 16 15 14 15 14 12 12 15 16 15 13 13 16 15 15 15 17 17 18 16 15 12 9 7 6 7 4 5 4 2 2 2 3 8 11 12 9
16 14 14 15 15 14 12 13 12 14 12 12 11 12 12 13 13 14 16 14 13 17 19 19 18 18 15 15 12 10 8 8 5 5 6 5 3 2 2 1 1 3 6 7
14 15 19 20 18 18 18 16 15 15 13 12 12 12 11 13 15 14 13 14 16 19 20 19 19 18 15 15 11 10 9 8 9 7 6 4 4 3 4 4 4 5 6 7
16 17 15 16 18 18 17 16 18 18 15 16 15 13 13 13 14 15 15 17 19 21 20 21 19 17 16 15 13 12 11 11 10 10 9 8 7 7 7 7 7 8 9 11
17 18 18 20 21 18 17 17 18 18 16 17 16 14 14 15 16 18 18 18 20 22 21 20 19 18 17 16 15 14 13 13 12 11 11 11 10 10 10 10 11 11 12 12
15 18 18 19 18 16 15 17 19 20 20 19 16 16 17 18 19 20 21 21 22 24 24 21 19 18 17 17 16 16 16 15 15 14 14 13 13 13 13 14 14 15 15 16
15 17 18 18 19 19 19 18 21 23 22 21 20 22 22 22 23 23 23 24 26 27 26 22 19 18 18 17 17 17 17 17 17 17 16 16 17 17 16 17 17 18 20 20
15 16 17 19 18 18 20 21 22 23 24 25 27 27 27 26 26 24 21 29 29 28 25 22 20 20 18 18 18 19 19 19 18 18 18 18 19 19 19 20 21 22 23 23
17 19 19 19 18 17 17 20 24 27 28 27 29 32 30 30 28 26 28 30 30 27 22 21 21 20 19 19 19 21 19 20 20 20 21 21 22 23 22 23 24 24 25 25
21 23 25 26 25 24 24 24 24 26 28 29 30 30 30 32 28 27 30 30 27 24 22 20 18 18 18 18 20 20 20 20 21 21 22 23 24 24 25 25 26 26 27 28
31 32 33 32 31 33 31 28 25 25 25 25 28 31 32 27 26 29 30 26 23 19 20 20 18 18 17 19 20 21 20 21 21 21 23 24 25 26 27 28 28 29 29 29
40 36 33 32 31 33 33 30 27 24 22 25 27 25 23 26 28 29 26 24 23 20 17 15 16 16 16 19 21 21 22 21 21 23 26 27 28 27 27 27 28 27 28 28
35 34 33 32 31 32 33 33 27 27 27 30 29 27 26 27 28 26 23 21 17 17 17 16 16 16 18 20 22 22 22 22 23 25 26 28 28 28 28 28 28 28 29 30
35 36 35 32 31 30 29 28 30 33 34 33 27 27 28 27 23 21 22 21 17 17 17 16 18 18 19 21 21 21 22 24 26 27 27 28 28 27 26 26 27 28 28 29
35 31 33 33 32 31 30 33 35 33 29 29 27 26 26 25 22 20 20 20 19 18 18 18 19 19 19 19 19 20 21 22 23 23 24 24 24 25 25 26 26 26 27 27
Wind_Direction
324 314 264 266 286 293 247 268 246 359 4 50 158 157 153 149 157 145 137 102 57 26 7 358 343 342 342 337 337 338 336 334 329 321 322 322 322 321 317 311 309 305 299 297
278 219 8 277 271 269 267 281 297 296 299 41 46 62 105 137 177 158 159 130 23 352 343 341 339 337 333 331 333 335 329 335 318 311 309 313 318 321 321 321 318 309 305 303
273 147 293 270 268 207 110 36 23 294 75 70 101 301 207 247 192 214 211 96 327 324 320 330 332 329 326 328 335 326 328 308 306 312 317 321 319 315 313 318 311 318 322 318
276 346 249 104 32 31 70 116 174 143 94 42 22 4 348 325 302 302 172 206 262 295 320 329 329 322 320 326 327 322 314 310 317 322 321 318 324 318 308 315 327 334 330 329
209 288 310 153 190 156 189 261 171 194 136 225 314 307 288 305 261 212 238 251 279 309 320 325 319 316 320 330 324 315 312 323 329 321 319 322 315 308 308 302 321 322 325 309
147 246 266 100 79 83 66 284 120 83 41 357 351 343 264 7 303 254 254 264 289 306 319 317 313 311 323 324 321 314 330 344 324 333 336 332 321 327 330 326 319 323 301 305
238 269 291 126 129 168 267 340 110 28 337 326 317 293 306 303 269 223 250 281 294 305 316 311 308 310 320 321 315 322 340 323 339 341 342 335 337 337 360 354 346 2 359 350
193 219 250 132 139 207 118 31 323 317 319 311 303 303 303 297 217 229 274 285 294 301 308 306 303 307 313 312 309 322 344 327 348 339 360 356 2 19 19 42 55 54 47 50
177 153 122 183 246 274 298 286 295 304 291 300 304 302 305 281 269 271 275 286 291 295 299 301 291 300 309 301 308 318 337 324 343 333 15 355 19 30 45 55 52 40 47 39
27 337 306 307 288 286 303 300 263 263 284 292 294 292 285 293 279 272 269 273 282 285 290 277 277 290 303 296 307 312 319 316 336 331 16 356 356 29 3 45 67 52 66 44
255 266 276 270 270 276 279 277 268 270 281 281 282 274 277 279 266 263 265 270 276 283 275 276 282 289 296 294 305 309 307 328 314 309 343 336 331 350 14 26 54 60 56 48
234 253 285 300 306 279 277 279 278 277 277 275 273 274 259 265 266 269 275 282 280 280 276 281 284 288 295 289 299 297 286 228 281 273 283 289 335 332 351 13 29 33 36 39
255 272 293 291 283 277 277 276 276 271 265 274 268 257 256 265 268 279 273 276 273 276 275 276 283 286 292 287 291 280 271 254 254 223 241 242 228 216 232 341 355 5 3 19
260 271 268 266 268 276 265 266 272 272 274 260 251 249 265 273 275 275 281 285 268 266 273 279 284 287 287 283 282 271 265 253 245 238 237 237 230 225 253 277 247 265 310 344
263 263 258 262 270 266 265 268 261 263 263 254 258 262 268 276 283 288 284 277 272 273 280 280 283 288 281 277 275 265 257 241 238 243 240 242 247 262 275 287 298 311 322 325
279 271 270 261 263 266 266 261 252 252 245 246 257 267 280 286 289 287 285 275 272 278 280 280 284 287 277 273 267 259 255 247 245 241 242 243 251 260 270 283 295 305 312 318
272 268 264 266 269 267 260 255 248 249 241 247 258 267 270 276 281 286 286 284 281 283 284 280 279 279 273 271 262 256 251 250 247 245 248 251 256 262 269 278 287 295 302 309
265 264 264 264 271 268 263 252 243 239 242 248 253 258 264 269 279 289 285 283 281 281 283 286 280 277 272 266 261 254 251 251 250 250 252 257 260 264 271 279 283 290 295 298
280 274 273 269 269 269 261 255 246 245 252 250 252 258 268 272 279 284 285 280 276 277 284 284 278 274 270 262 260 253 251 252 253 252 255 258 260 265 271 276 283 285 289 294
290 280 276 274 277 272 269 262 256 254 253 256 258 261 265 275 280 281 292 291 283 281 282 277 273 272 268 257 253 253 250 253 255 255 255 259 264 267 269 272 275 281 286 289
307 300 281 270 272 281 282 283 274 265 262 256 259 267 278 280 284 277 286 283 294 284 278 273 265 267 263 256 252 254 251 253 255 256 259 261 264 268 271 273 277 280 283 287
314 314 302 286 277 278 279 277 277 274 272 268 269 271 276 279 279 274 277 280 290 280 269 269 265 268 264 256 255 254 256 256 259 260 259 260 265 269 273 275 277 280 284 288
306 303 299 289 275 274 281 271 273 271 271 279 280 279 280 276 278 276 279 285 281 276 266 264 264 265 258 252 250 255 257 261 263 268 270 270 269 269 272 276 281 284 287 289
301 298 289 284 281 277 271 269 275 269 280 288 286 275 270 277 279 279 278 278 273 268 258 259 261 260 254 251 255 257 260 262 260 263 269 275 278 282 282 284 285 287 289 292
303 301 295 286 280 269 265 274 265 268 280 296 283 271 275 279 278 277 274 271 266 255 252 258 258 258 255 256 260 262 263 265 263 265 271 275 279 283 286 288 290 292 292 293
302 295 293 288 280 277 274 273 264 279 287 287 280 276 277 280 272 267 262 261 256 251 255 257 260 262 261 263 266 267 267 267 268 270 273 277 281 284 286 288 290 291 290 291
315 302 291 285 282 280 273 271 273 275 276 272 269 265 269 274 269 266 252 250 248 253 259 264 267 268 269 267 266 267 269 272 275 277 279 281 283 285 288 290 291 292 295 298